Weather History for Denver Centennial, CO

Change the Weather History Date:

Tuesday, May 7, 2013

  Actual Average Record
Temperature  
Mean Temperature 55 °F -  
Max Temperature 68 °F 64 °F 82 °F (2000)
Min Temperature 42 °F 37 °F 28 °F (1999)
Degree Days  
Heating Degree Days 10    
Month to date heating degree days 158  
Growing Degree Days 4 (Base 50)    
Moisture  
Dew Point 36 °F    
Average Humidity 57    
Maximum Humidity 86    
Minimum Humidity 28    
Precipitation  
Precipitation 0.03 in - - ()
Month to date precipitation 0.31  
Year to date precipitation 3.27  
Sea Level Pressure  
Sea Level Pressure 29.88 in    
Wind  
Wind Speed 8 mph (WNW)    
Max Wind Speed 30 mph    
Max Gust Speed 36 mph    
Visibility 10 miles    
Events Rain , Thunderstorm    
Averages and records for this station are not official NWS values.
T = Trace of Precipitation, MM = Missing Value Source: NWS Daily Summary

Daily Weather History Graph

Daily Weather History Graph

Search for Another Location

Airport:

Trip Planner

Search our weather history database for the weather conditions in past years. The results will help you decide how hot, cold, wet, or windy it might be!

Date:

Astronomy

May. 07, 2013 Rise Set
Actual Time 5:52 AM MDT 7:59 PM MDT
Civil Twilight 5:23 AM MDT 8:29 PM MDT
Nautical Twilight 4:47 AM MDT 9:05 PM MDT
Astronomical Twilight 4:07 AM MDT 9:45 PM MDT
Moon 4:28 AM MDT (5/7) 6:02 PM MDT (5/7)
Length of Visible Light 15h 05m
Length of Day
14h 06m
Waning Crescent, 5% of the Moon is Illuminated
May 7
Waning Crescent
May 9
New
May 17
First Quarter
May 24
Full
May 31
Last Quarter

Hourly Weather History & Observations

Time (MDT) Temp. Windchill Dew Point Humidity Pressure Visibility Wind Dir Wind Speed Gust Speed Precip Events Conditions
12:53 AM 48.9 °F - 37.9 °F 66% 29.86 in 10.0 mi SSW 11.5 mph - N/A   Scattered Clouds
1:53 AM 43.0 °F 39.5 °F 37.0 °F 80% 29.86 in 10.0 mi South 5.8 mph - N/A   Partly Cloudy
2:53 AM 48.0 °F - 37.0 °F 66% 29.83 in 10.0 mi SW 5.8 mph - N/A   Clear
3:53 AM 48.0 °F - 36.0 °F 63% 29.84 in 10.0 mi West 5.8 mph - N/A   Scattered Clouds
4:53 AM 48.0 °F - 36.0 °F 63% 29.85 in 10.0 mi West 8.1 mph - N/A   Mostly Cloudy
5:53 AM 48.0 °F - 36.0 °F 63% 29.86 in 10.0 mi West 3.5 mph - N/A   Mostly Cloudy
6:53 AM 48.0 °F - 37.0 °F 66% 29.88 in 10.0 mi Calm Calm - N/A   Mostly Cloudy
7:53 AM 51.1 °F - 36.0 °F 56% 29.91 in 10.0 mi Calm Calm - N/A   Overcast
8:53 AM 54.0 °F - 36.0 °F 51% 29.90 in 10.0 mi Calm Calm - 0.00 in   Overcast
9:53 AM 60.1 °F - 34.0 °F 38% 29.87 in 10.0 mi North 11.5 mph - N/A   Mostly Cloudy
10:53 AM 61.0 °F - 34.0 °F 36% 29.88 in 10.0 mi NNE 8.1 mph - N/A   Mostly Cloudy
11:53 AM 62.1 °F - 33.1 °F 34% 29.88 in 10.0 mi NNE 8.1 mph - N/A   Scattered Clouds
12:53 PM 63.0 °F - 32.0 °F 31% 29.85 in 10.0 mi NNE 8.1 mph - N/A   Mostly Cloudy
1:53 PM 63.0 °F - 30.9 °F 30% 29.85 in 10.0 mi Calm Calm - N/A   Mostly Cloudy
2:53 PM 64.9 °F - 30.9 °F 28% 29.81 in 10.0 mi ESE 3.5 mph - N/A   Mostly Cloudy
3:53 PM 64.9 °F - 30.9 °F 28% 29.80 in 10.0 mi NNW 6.9 mph - N/A   Mostly Cloudy
4:53 PM 64.9 °F - 30.9 °F 28% 29.80 in 10.0 mi North 9.2 mph - N/A   Mostly Cloudy
5:53 PM 63.0 °F - 32.0 °F 31% 29.81 in 10.0 mi NE 6.9 mph - N/A   Mostly Cloudy
6:47 PM 59.0 °F - 33.8 °F 39% 29.95 in 10.0 mi South 12.7 mph 25.3 mph N/A Thunderstorm Thunderstorm
6:53 PM 57.9 °F - 35.1 °F 42% 29.87 in 10.0 mi SSW 23.0 mph 34.5 mph N/A Thunderstorm Thunderstorm
6:58 PM 55.4 °F - 37.4 °F 51% 29.96 in 10.0 mi SSW 26.5 mph 35.7 mph 0.00 in Thunderstorm Thunderstorm
7:53 PM 52.0 °F - 42.1 °F 69% 29.90 in 10.0 mi NNW 8.1 mph - 0.03 in Rain , Thunderstorm Light Thunderstorms and Rain
8:16 PM 50.0 °F - 44.6 °F 82% 29.99 in 10.0 mi NNW 11.5 mph - 0.00 in   Scattered Clouds
8:53 PM 48.9 °F - 43.0 °F 80% 29.94 in 10.0 mi NNW 11.5 mph - 0.00 in   Scattered Clouds
9:53 PM 48.0 °F - 42.1 °F 80% 29.95 in 10.0 mi NNW 8.1 mph - N/A   Scattered Clouds
10:53 PM 48.0 °F - 43.0 °F 83% 29.95 in 10.0 mi WNW 4.6 mph - N/A   Scattered Clouds
11:53 PM 46.0 °F 43.1 °F 43.0 °F 89% 29.95 in 10.0 mi West 5.8 mph - N/A   Scattered Clouds